Vorticity
13 6 5 2 11 3 7 9 7 9 4 5 6 9 5 11 28 7 13 -3 8 59 25 22 21 24 11 4 5 6 7 7
5 11 10 9 16 6 19 3 8 9 5 5 5 9 6 19 23 5 21 23 26 34 34 41 27 14 5 8 2 8 5 5
19 10 8 13 9 3 7 1 0 8 6 5 7 7 7 22 14 5 13 11 9 9 31 11 -0 6 13 7 5 9 4 8
12 16 11 16 6 18 9 2 -3 3 8 5 8 7 8 23 15 13 18 28 7 15 3 2 1 0 8 11 8 5 -1 26
8 16 12 7 9 5 11 6 1 -3 7 6 9 7 10 19 9 7 25 15 2 -6 21 -0 0 2 3 -0 0 6 10 10
12 13 9 5 13 6 8 7 3 -2 4 7 10 6 11 19 4 4 2 25 21 -16 11 25 12 13 -4 25 4 7 4 7
18 11 1 17 11 -3 4 5 7 0 -1 8 11 6 10 18 14 10 3 29 33 18 21 11 -4 3 22 25 7 12 18 11
29 11 3 13 8 -1 3 5 8 1 -1 8 10 6 9 15 14 10 6 23 22 5 19 31 -3 5 21 14 -3 1 15 29
37 23 9 7 9 7 14 7 11 1 -1 9 10 6 9 11 16 12 9 10 28 5 2 8 4 4 15 -13 13 19 -1 23
31 33 16 7 13 7 3 17 11 5 2 9 11 6 8 9 11 13 12 11 15 11 4 5 8 -0 -3 4 -9 9 -3 17
23 33 13 9 11 10 12 14 9 3 3 9 11 7 7 7 10 11 11 9 14 18 18 2 8 7 7 2 7 12 5 3
29 32 15 6 4 7 8 16 8 3 -2 9 7 7 6 6 7 7 7 8 10 10 16 18 4 5 9 12 1 -0 2 20
32 19 14 12 10 4 11 21 10 -1 1 7 6 8 5 5 5 4 5 6 7 9 9 7 7 9 18 3 4 2 5 6
10 44 7 12 -5 14 24 18 7 3 3 9 10 6 7 5 4 4 3 3 4 6 6 9 13 16 12 10 4 1 11 7
16 15 19 20 -7 32 26 12 5 3 6 5 9 10 8 7 5 5 5 4 4 4 4 4 5 6 8 11 13 16 12 14
1 14 40 25 15 27 25 10 1 2 -0 -1 10 15 15 15 13 13 11 9 5 6 7 7 6 4 3 4 5 5 5 6
17 53 36 31 24 31 23 19 9 4 5 18 12 5 27 13 11 14 12 14 9 14 12 12 14 8 7 6 6 6 7 6
-11 23 3 6 2 7 32 26 17 10 16 15 10 -5 -21 -9 -2 -1 -13 -2 2 6 0 -5 -15 -1 10 11 11 10 8 10
17 -1 11 11 12 16 16 20 1 14 -18 25 31 24 8 8 12 11 -0 3 5 7 4 15 14 8 8 -4 -1 1 0 0
Height
3073 3074 3075 3076 3079 3080 3081 3081 3082 3082 3082 3082 3081 3080 3077 3075 3074 3073 3072 3070 3071 3072 3077 3085 3091 3099 3105 3114 3122 3127 3133 3138
3063 3065 3066 3068 3071 3073 3076 3077 3077 3078 3078 3077 3076 3076 3073 3070 3069 3069 3068 3067 3067 3067 3073 3082 3089 3097 3106 3112 3118 3124 3127 3132
3054 3056 3058 3060 3063 3066 3070 3071 3072 3073 3073 3073 3072 3071 3068 3067 3066 3066 3065 3064 3067 3069 3073 3081 3088 3095 3102 3108 3114 3119 3122 3128
3044 3046 3049 3052 3056 3060 3063 3066 3068 3069 3069 3068 3069 3067 3065 3065 3065 3064 3065 3064 3068 3072 3076 3081 3087 3094 3100 3106 3111 3114 3120 3124
3033 3036 3040 3045 3050 3053 3057 3060 3063 3064 3065 3064 3065 3064 3062 3062 3063 3062 3064 3065 3068 3071 3076 3082 3087 3092 3097 3102 3105 3111 3116 3119
3021 3026 3032 3037 3042 3047 3050 3053 3056 3059 3061 3060 3062 3060 3059 3059 3061 3061 3062 3063 3065 3067 3072 3078 3084 3088 3093 3097 3100 3105 3111 3115
3010 3017 3021 3027 3033 3039 3044 3048 3051 3054 3056 3057 3058 3057 3056 3056 3058 3058 3058 3058 3062 3065 3069 3075 3080 3084 3088 3092 3096 3099 3103 3107
3002 3007 3014 3020 3026 3033 3038 3042 3046 3049 3051 3053 3055 3054 3053 3054 3054 3056 3056 3057 3059 3065 3069 3072 3075 3080 3085 3088 3091 3095 3099 3101
2997 3000 3007 3014 3020 3027 3032 3036 3041 3044 3047 3049 3051 3051 3051 3051 3052 3053 3054 3055 3056 3061 3065 3070 3073 3077 3081 3084 3087 3090 3093 3096
2989 2993 3000 3007 3014 3021 3026 3030 3035 3039 3042 3044 3046 3048 3048 3048 3049 3050 3052 3053 3054 3057 3061 3066 3069 3074 3077 3080 3082 3086 3088 3091
2982 2986 2993 3000 3007 3012 3017 3023 3028 3034 3038 3040 3042 3045 3046 3046 3047 3048 3049 3051 3052 3053 3056 3060 3065 3068 3073 3075 3078 3081 3084 3087
2976 2981 2986 2993 2999 3004 3009 3014 3021 3028 3033 3035 3038 3041 3043 3044 3045 3047 3047 3048 3050 3052 3054 3058 3062 3066 3068 3071 3074 3077 3079 3081
2972 2975 2980 2985 2990 2996 3001 3007 3015 3023 3028 3030 3033 3036 3039 3041 3043 3044 3046 3048 3049 3050 3052 3055 3058 3061 3064 3067 3069 3071 3073 3076
2970 2971 2974 2978 2983 2988 2994 3002 3009 3017 3022 3024 3027 3031 3034 3037 3039 3042 3044 3046 3048 3050 3052 3054 3056 3058 3060 3062 3065 3067 3069 3072
2968 2969 2969 2974 2981 2984 2989 2995 3001 3008 3013 3017 3021 3025 3029 3032 3035 3038 3041 3043 3045 3048 3050 3052 3054 3056 3058 3059 3061 3062 3064 3065
2963 2968 2971 2971 2980 2982 2984 2990 2994 3000 3007 3013 3018 3021 3025 3028 3031 3034 3037 3040 3042 3044 3047 3049 3051 3052 3053 3054 3055 3056 3057 3058
2958 2956 2965 2973 2976 2981 2984 2986 2992 2998 3003 3009 3010 3016 3020 3023 3027 3029 3031 3033 3035 3037 3040 3043 3045 3047 3047 3047 3048 3049 3050 3051
2965 2958 2964 2968 2971 2977 2980 2983 2989 2993 2998 3001 3005 3009 3013 3017 3021 3024 3028 3029 3031 3032 3032 3034 3037 3035 3038 3039 3040 3040 3041 3043
2968 2966 2965 2968 2971 2974 2976 2981 2984 2988 2992 2993 2999 3003 3006 3011 3015 3019 3021 3023 3023 3025 3026 3027 3027 3029 3032 3032 3033 3034 3034 3034